Probability
97 97 97 97 42 0 0 0 0 0 0 0 0 0 0 0 0 3 0 35 48 94 100 100 100 100 100 100 100 100 100 100 97 97 97 97 97 97 97 100 100 100 97 97 97 97 100 100 100
97 97 94 48 3 0 0 0 0 0 0 0 0 0 0 0 0 32 32 58 68 97 100 100 100 100 100 100 100 100 100 100 97 97 97 97 97 97 97 100 97 97 97 97 97 97 97 100 97
97 94 84 16 0 0 0 0 0 3 3 0 0 0 0 0 6 35 52 68 61 90 100 100 100 100 100 100 100 100 100 100 100 97 94 94 94 97 94 97 97 97 97 97 97 97 97 94 94
87 68 23 0 0 0 0 0 0 3 0 0 0 0 0 0 10 61 68 65 74 94 100 100 100 100 100 100 100 100 100 100 97 97 94 94 90 94 90 90 94 94 97 97 94 94 94 94 97
68 29 0 0 0 0 0 3 3 0 0 0 0 0 0 0 23 71 71 84 94 97 100 100 100 100 100 100 100 100 100 100 97 97 97 94 90 84 87 87 87 84 87 87 87 84 84 81 84
29 3 0 0 0 0 3 6 6 3 0 0 0 0 0 0 26 39 71 77 90 97 97 100 100 100 100 100 100 100 100 97 97 97 97 97 90 87 90 94 87 84 81 84 84 77 77 84 84
26 3 0 0 0 0 0 13 6 6 6 0 0 0 0 3 6 19 35 45 55 65 77 84 94 97 100 100 100 100 97 97 97 97 97 100 97 97 90 90 90 84 74 77 74 74 71 68 74
3 0 0 0 0 0 3 3 6 0 0 3 0 0 0 0 3 3 13 16 29 29 39 48 61 77 97 97 100 100 100 100 100 100 97 97 97 100 94 97 90 87 74 74 68 71 68 74 74
0 0 0 0 0 0 0 0 0 0 0 0 0 3 3 3 0 3 0 6 6 10 10 23 35 45 55 71 90 97 97 97 97 97 100 100 90 87 87 97 94 90 84 77 77 68 65 68 74
0 0 0 0 0 0 0 0 3 0 0 0 0 0 0 0 0 0 0 0 0 3 6 6 10 13 23 48 65 74 81 94 90 84 90 87 71 58 71 81 100 100 94 97 84 94 77 58 6
0 0 3 0 3 0 0 0 0 0 0 0 0 0 0 0 0 0 0 0 0 0 0 0 3 10 10 16 26 42 48 48 52 61 68 68 65 42 52 32 84 100 90 74 74 65 26 6 0
0 3 6 6 0 0 0 0 0 0 0 0 0 0 0 0 0 0 0 0 0 0 0 0 0 0 0 3 13 13 16 23 42 35 45 42 39 29 23 16 23 45 52 29 10 3 3 0 0
0 0 3 0 0 0 0 0 0 0 0 0 0 0 0 0 0 0 0 0 0 0 0 0 0 0 0 0 0 3 3 6 19 19 19 32 29 26 26 10 6 10 10 13 3 3 0 0 0
0 0 0 0 0 0 0 0 0 0 0 0 0 0 0 0 0 0 0 0 0 0 0 0 0 0 0 0 0 0 0 3 10 6 3 16 16 19 13 10 3 3 10 10 3 0 0 0 0
0 0 0 0 0 0 0 0 0 0 0 0 0 0 0 0 0 0 0 0 0 0 0 0 0 0 0 0 0 0 0 0 3 0 3 3 6 3 3 6 3 0 3 3 0 0 0 0 0
0 0 0 0 0 0 0 0 0 0 0 0 0 0 0 0 0 0 0 0 0 0 0 0 0 0 0 0 0 0 0 0 3 0 3 6 3 0 0 0 0 3 0 3 0 0 0 0 0
0 0 0 0 0 0 0 0 0 0 0 0 0 0 0 0 0 0 0 0 0 0 0 0 0 0 0 0 0 0 0 0 0 0 6 3 3 6 3 3 0 3 0 0 3 0 0 0 0
0 0 0 0 0 0 0 0 0 0 0 0 0 0 0 0 0 0 0 0 0 0 0 0 0 0 0 0 0 0 0 0 0 0 3 3 3 6 3 3 0 0 3 0 0 0 0 0 0
0 0 0 0 0 0 0 0 0 0 0 0 0 0 0 0 0 0 0 0 0 0 0 0 0 0 0 0 0 0 0 0 0 0 0 3 0 0 0 3 0 0 0 0 3 0 0 0 0
0 0 0 0 0 0 0 0 0 0 0 0 0 0 0 0 0 0 0 0 0 0 0 0 0 0 0 0 0 0 0 0 0 3 0 0 3 0 3 0 3 0 0 3 3 0 0 0 0
0 0 0 0 0 0 0 0 0 0 0 0 0 0 0 0 0 0 0 0 0 0 0 0 0 0 0 0 0 0 0 0 0 3 3 0 0 0 3 3 6 0 0 0 3 3 0 0 0
0 0 0 0 0 0 0 0 0 0 0 0 0 0 0 0 0 0 0 0 0 0 0 0 0 0 0 0 0 0 0 0 0 0 3 0 0 0 0 0 3 6 3 3 3 6 0 0 0
0 0 0 0 0 0 0 0 0 0 0 0 0 0 0 0 0 0 0 0 0 0 0 0 0 0 0 0 0 0 0 0 0 0 0 0 0 0 0 3 3 3 3 0 3 3 3 0 0
0 0 0 0 0 0 0 0 0 0 0 0 0 0 0 0 0 0 0 0 0 0 0 0 0 0 0 0 0 0 0 0 0 0 0 0 0 0 3 6 10 6 3 0 0 0 0 0 0
0 0 0 0 0 0 0 0 0 0 0 0 0 0 0 0 0 0 0 0 0 0 0 0 0 0 0 0 0 0 0 0 0 0 0 0 0 0 3 13 6 3 3 0 0 0 0 0 0
0 0 0 0 0 0 0 0 0 0 0 0 0 0 0 0 0 0 0 0 0 0 0 0 0 0 0 0 0 0 0 0 0 0 0 0 0 0 0 0 3 0 0 0 0 0 0 0 0
0 0 0 0 0 0 0 0 0 0 0 0 0 0 0 0 0 0 0 0 0 0 0 0 0 0 0 0 0 0 0 0 3 3 3 3 3 0 0 0 0 3 3 0 0 0 0 0 0
0 0 0 0 0 0 0 0 0 0 0 0 0 0 0 0 0 0 0 0 0 0 0 0 0 0 0 0 0 0 0 0 0 0 3 3 3 0 3 3 3 0 0 0 0 0 0 0 0
0 0 0 0 0 0 0 0 0 0 0 0 0 0 0 0 0 0 0 0 0 0 0 0 0 0 0 0 0 0 0 0 0 0 0 0 0 0 0 0 0 0 0 0 0 0 0 0 0
0 0 0 0 0 0 0 0 0 0 0 0 0 0 0 0 0 0 0 0 0 0 0 0 0 0 0 0 0 0 0 0 0 0 0 0 0 0 0 0 0 0 0 0 0 0 0 0 0
Height
5933 5932 5932 5933 5932 5931 5930 5929 5928 5928 5928 5926 5925 5925 5924 5924 5924 5925 5923 5920 5920 5920 5919 5919 5919 5918 5918 5917 5917 5917 5916 5916 5916 5916 5915 5915 5914 5914 5913 5913 5913 5912 5912 5912 5911 5911 5911 5911 5911
5934 5933 5933 5934 5932 5931 5931 5929 5928 5928 5927 5926 5926 5925 5925 5924 5922 5922 5921 5920 5920 5920 5919 5919 5919 5918 5918 5918 5917 5917 5917 5917 5916 5916 5916 5915 5914 5914 5913 5913 5912 5912 5911 5911 5911 5910 5910 5910 5910
5935 5934 5934 5934 5933 5932 5931 5930 5929 5928 5927 5927 5926 5926 5925 5924 5922 5921 5920 5920 5920 5919 5919 5919 5919 5918 5918 5918 5918 5917 5917 5917 5916 5916 5916 5915 5915 5914 5913 5913 5912 5912 5911 5911 5910 5910 5910 5909 5909
5935 5934 5935 5935 5933 5932 5931 5930 5929 5928 5928 5927 5926 5926 5925 5924 5922 5921 5920 5919 5919 5919 5918 5918 5918 5917 5917 5917 5917 5917 5916 5916 5916 5915 5915 5915 5914 5914 5913 5913 5912 5911 5911 5910 5910 5909 5909 5909 5909
5937 5936 5935 5934 5933 5932 5930 5929 5929 5928 5928 5927 5926 5925 5924 5924 5922 5920 5919 5918 5918 5917 5916 5916 5916 5916 5916 5916 5915 5915 5915 5915 5914 5914 5914 5914 5913 5913 5913 5912 5912 5911 5910 5910 5909 5909 5908 5908 5908
5937 5937 5935 5934 5932 5930 5929 5929 5928 5928 5927 5926 5926 5924 5923 5922 5921 5919 5918 5917 5916 5915 5914 5914 5914 5914 5913 5913 5913 5913 5913 5913 5912 5912 5912 5912 5912 5912 5911 5911 5911 5910 5910 5909 5909 5908 5908 5907 5907
5938 5936 5934 5933 5932 5930 5929 5928 5927 5927 5926 5925 5924 5923 5921 5920 5920 5918 5916 5915 5914 5912 5911 5911 5911 5910 5910 5910 5910 5910 5910 5910 5910 5910 5910 5910 5910 5910 5910 5909 5909 5909 5909 5909 5908 5908 5907 5907 5907
5937 5936 5934 5933 5931 5929 5928 5927 5926 5925 5924 5923 5922 5921 5919 5918 5917 5916 5915 5913 5912 5910 5909 5908 5907 5906 5906 5906 5906 5906 5906 5906 5906 5907 5907 5907 5907 5907 5907 5907 5907 5907 5907 5907 5907 5907 5906 5906 5906
5936 5935 5933 5932 5930 5929 5927 5925 5924 5922 5921 5920 5919 5918 5917 5915 5913 5913 5912 5911 5909 5908 5906 5905 5904 5903 5902 5901 5901 5901 5901 5902 5902 5903 5903 5904 5904 5904 5904 5905 5905 5905 5905 5905 5905 5905 5905 5905 5905
5934 5933 5932 5930 5929 5927 5925 5923 5922 5920 5919 5917 5916 5915 5913 5912 5910 5909 5908 5907 5905 5904 5903 5902 5900 5899 5898 5897 5897 5897 5897 5897 5898 5898 5899 5900 5900 5900 5901 5901 5902 5902 5902 5903 5903 5903 5903 5903 5903
5931 5930 5929 5927 5925 5924 5922 5920 5919 5917 5915 5914 5912 5911 5909 5908 5906 5904 5903 5901 5900 5899 5898 5897 5896 5894 5893 5893 5892 5892 5892 5892 5892 5893 5894 5895 5895 5896 5896 5897 5897 5898 5899 5899 5900 5900 5901 5901 5901
5929 5927 5926 5924 5922 5921 5919 5917 5915 5913 5911 5909 5907 5905 5903 5902 5901 5899 5897 5895 5893 5892 5891 5889 5889 5888 5888 5888 5887 5886 5887 5886 5887 5888 5888 5889 5890 5890 5891 5892 5893 5894 5895 5895 5896 5897 5898 5898 5899
5925 5923 5922 5921 5919 5917 5915 5913 5911 5908 5905 5903 5901 5899 5897 5895 5893 5892 5890 5888 5886 5884 5883 5881 5881 5880 5880 5880 5880 5880 5881 5881 5881 5881 5882 5883 5884 5884 5885 5886 5887 5888 5889 5891 5892 5893 5894 5895 5896
5922 5921 5919 5917 5915 5913 5911 5908 5906 5903 5900 5897 5894 5892 5890 5888 5886 5883 5881 5879 5877 5875 5874 5873 5872 5871 5871 5871 5872 5872 5873 5874 5875 5875 5875 5876 5877 5877 5879 5879 5880 5882 5883 5885 5886 5888 5889 5891 5892
5919 5917 5915 5913 5910 5909 5907 5904 5900 5897 5894 5891 5888 5885 5882 5880 5877 5874 5872 5870 5868 5866 5864 5863 5862 5861 5861 5861 5861 5863 5864 5865 5867 5867 5868 5869 5870 5871 5872 5873 5874 5875 5877 5878 5880 5882 5884 5886 5888
5915 5914 5911 5909 5906 5904 5903 5898 5895 5891 5888 5884 5880 5877 5874 5871 5868 5866 5863 5860 5858 5856 5855 5853 5852 5852 5851 5851 5851 5851 5853 5854 5857 5858 5860 5861 5862 5864 5865 5867 5868 5869 5870 5872 5874 5876 5879 5880 5882
5911 5909 5906 5904 5900 5897 5896 5892 5888 5884 5880 5877 5873 5869 5866 5863 5860 5857 5854 5852 5849 5847 5845 5844 5843 5841 5841 5840 5840 5840 5841 5843 5845 5848 5850 5852 5853 5855 5857 5859 5861 5862 5864 5866 5868 5870 5872 5874 5877
5907 5904 5901 5898 5895 5891 5888 5885 5882 5878 5874 5870 5865 5862 5858 5855 5852 5849 5846 5843 5841 5839 5837 5835 5833 5832 5831 5830 5830 5829 5830 5831 5833 5836 5839 5841 5843 5846 5848 5851 5853 5855 5857 5859 5861 5863 5865 5868 5870
5903 5900 5897 5894 5890 5886 5883 5880 5877 5873 5869 5864 5860 5856 5852 5848 5844 5841 5837 5835 5832 5830 5828 5826 5824 5823 5821 5820 5819 5819 5819 5820 5822 5824 5827 5830 5833 5836 5839 5842 5845 5847 5849 5851 5853 5855 5858 5860 5863
5900 5897 5893 5890 5886 5882 5879 5876 5873 5869 5864 5859 5855 5851 5846 5842 5838 5834 5830 5827 5825 5823 5820 5818 5816 5814 5813 5811 5810 5809 5809 5809 5810 5812 5815 5818 5822 5825 5829 5832 5835 5838 5841 5843 5845 5848 5851 5853 5855
5896 5893 5890 5886 5882 5878 5875 5872 5869 5865 5860 5856 5851 5846 5842 5837 5833 5829 5825 5822 5819 5816 5814 5811 5809 5807 5805 5803 5802 5800 5800 5800 5800 5802 5804 5807 5810 5814 5818 5821 5824 5828 5831 5834 5837 5840 5842 5845 5848
5893 5890 5886 5882 5879 5875 5872 5869 5865 5861 5857 5852 5847 5843 5838 5833 5829 5825 5821 5818 5814 5811 5809 5806 5803 5801 5798 5796 5794 5793 5792 5791 5792 5792 5794 5796 5800 5803 5807 5810 5814 5817 5821 5825 5828 5831 5834 5837 5840
5890 5886 5883 5879 5876 5873 5869 5866 5863 5858 5853 5849 5845 5840 5835 5831 5826 5822 5818 5815 5811 5808 5805 5802 5799 5796 5793 5790 5788 5786 5785 5784 5784 5784 5785 5787 5790 5793 5796 5800 5803 5807 5811 5815 5818 5822 5825 5828 5831
5887 5884 5880 5877 5874 5872 5868 5864 5861 5856 5852 5848 5843 5839 5834 5830 5825 5821 5817 5813 5810 5806 5802 5798 5795 5792 5789 5786 5783 5781 5780 5778 5777 5777 5778 5779 5781 5784 5787 5790 5793 5797 5801 5805 5809 5813 5816 5819 5823
5885 5883 5880 5876 5873 5870 5866 5862 5860 5855 5851 5847 5843 5839 5834 5830 5825 5821 5817 5813 5809 5805 5801 5797 5793 5789 5786 5783 5780 5778 5775 5773 5772 5771 5771 5772 5774 5776 5778 5781 5784 5787 5791 5795 5799 5802 5806 5810 5814
5884 5881 5879 5876 5872 5869 5865 5861 5859 5855 5851 5847 5843 5839 5835 5830 5826 5822 5818 5813 5809 5804 5800 5796 5792 5788 5784 5781 5777 5775 5772 5770 5768 5767 5767 5767 5768 5769 5770 5772 5774 5777 5781 5785 5789 5792 5796 5801 5805
5883 5880 5878 5875 5871 5868 5865 5862 5859 5855 5851 5847 5843 5839 5835 5831 5827 5823 5818 5814 5809 5805 5801 5797 5792 5788 5783 5780 5776 5773 5771 5768 5766 5765 5764 5763 5763 5763 5764 5765 5767 5769 5772 5775 5779 5783 5788 5792 5795
5883 5880 5878 5875 5872 5869 5866 5862 5860 5856 5852 5848 5844 5841 5837 5833 5828 5824 5820 5815 5810 5806 5801 5797 5793 5789 5785 5781 5777 5774 5771 5768 5765 5763 5762 5760 5760 5759 5759 5759 5760 5762 5765 5768 5772 5776 5779 5783 5787
5884 5881 5878 5875 5872 5870 5866 5866 5861 5857 5854 5850 5846 5843 5839 5835 5830 5826 5821 5817 5812 5807 5803 5798 5794 5790 5786 5782 5778 5775 5771 5768 5766 5763 5761 5759 5758 5757 5756 5756 5756 5758 5760 5762 5765 5768 5772 5775 5778
5884 5882 5879 5877 5874 5871 5868 5869 5862 5859 5855 5852 5848 5845 5841 5837 5833 5828 5824 5819 5814 5810 5805 5801 5796 5792 5788 5784 5780 5776 5773 5770 5766 5763 5761 5759 5757 5755 5754 5753 5753 5754 5755 5757 5760 5762 5765 5768 5771
Wind_Speed
9 7 7 8 6 6 6 6 8 9 8 7 6 5 4 3 2 3 3 2 3 3 2 1 1 1 1 1 2 2 2 3 3 3 3 3 2 2 2 1 2 3 4 6 7 9 10 11 12
7 6 6 7 7 6 6 7 8 7 8 7 6 5 4 3 3 4 3 3 4 4 4 4 3 3 2 2 2 1 1 1 1 2 2 2 2 2 2 2 2 2 3 4 6 7 8 9 9
5 6 7 7 6 6 7 7 7 8 9 8 7 6 5 4 3 4 4 5 5 5 6 6 6 6 5 5 4 4 3 3 2 2 2 1 2 2 2 2 2 2 2 3 4 5 6 7 7
4 5 6 6 6 6 7 7 8 9 9 8 7 7 6 4 4 4 5 5 6 6 7 8 8 8 8 8 7 7 6 6 5 4 4 3 3 2 2 2 2 2 2 3 3 4 5 6 6
6 7 7 7 6 6 6 7 8 9 9 9 8 7 7 6 5 5 6 6 7 8 9 9 10 10 10 10 10 10 9 9 8 7 7 6 5 5 4 3 3 3 3 3 3 4 5 5 5
7 8 8 8 6 5 6 7 8 8 9 10 9 8 8 7 6 7 8 8 8 9 10 10 10 11 12 12 12 12 12 12 11 10 9 9 8 7 6 5 5 4 4 4 3 4 4 5 5
7 9 9 9 7 6 7 9 10 11 11 11 10 10 10 9 8 7 9 9 10 10 11 12 12 13 14 14 15 15 15 15 14 13 12 11 10 10 9 8 7 6 5 5 4 4 4 5 5
9 10 10 10 8 7 9 10 12 13 13 14 13 12 13 12 12 10 11 11 12 13 13 14 15 16 16 17 17 18 18 17 17 16 15 14 13 13 12 11 10 9 8 7 6 6 5 5 4
10 10 11 11 12 12 12 13 14 15 16 16 16 16 15 15 16 15 15 15 15 15 16 17 17 17 18 19 20 20 20 20 20 20 19 18 16 16 15 14 13 12 11 10 9 8 7 6 6
10 11 12 11 12 13 13 14 15 17 18 19 19 19 19 20 20 20 20 20 20 19 20 20 21 21 21 21 21 22 22 22 23 22 22 21 20 19 18 17 16 15 14 12 11 10 10 9 7
12 12 12 13 14 15 15 17 18 19 20 21 22 23 23 23 24 24 25 26 26 26 25 26 25 25 25 24 24 23 23 24 24 25 24 24 23 23 21 20 19 18 17 15 14 13 12 11 10
13 14 15 15 16 17 19 20 21 22 23 24 25 26 26 27 27 28 28 29 30 30 31 31 31 30 30 29 28 27 26 26 26 26 26 26 25 25 24 24 23 22 20 19 17 16 14 13 12
15 16 18 18 19 20 21 22 23 24 25 26 27 28 29 30 30 31 31 32 33 34 34 35 35 35 35 34 33 31 30 30 29 27 27 29 28 27 26 26 26 25 24 22 20 19 17 16 15
18 19 20 21 22 22 22 23 23 24 26 27 28 30 30 31 32 33 33 34 35 36 37 38 39 39 38 38 37 37 36 34 33 32 30 30 30 29 28 27 27 27 27 26 25 22 20 19 17
19 20 21 22 22 23 25 25 24 26 28 29 30 31 31 32 33 34 35 36 36 37 38 39 40 40 40 40 40 40 39 38 37 35 34 32 31 30 28 27 26 26 27 28 27 25 23 21 20
20 21 22 23 25 26 26 27 28 28 30 31 31 32 32 33 33 34 35 36 36 37 38 38 39 39 40 40 40 41 40 39 38 37 37 35 33 32 30 29 28 27 26 28 29 28 26 24 23
21 23 24 26 28 29 29 29 29 29 30 30 31 31 32 32 33 33 34 34 35 36 36 35 35 36 37 38 39 40 40 39 39 38 38 37 36 34 32 30 29 28 27 27 28 28 29 28 27
21 23 25 27 29 31 31 30 30 29 29 29 29 30 31 31 32 32 32 32 33 33 33 34 34 34 35 36 37 38 39 39 38 38 37 37 37 36 34 32 31 30 29 29 28 27 29 30 29
21 23 26 28 29 30 30 29 27 27 27 26 27 28 29 29 30 30 29 29 29 29 29 30 31 33 33 34 35 36 37 37 38 37 37 37 37 37 36 35 34 33 31 30 29 29 29 30 30
20 23 25 27 28 28 27 26 25 24 23 23 24 24 25 26 26 26 26 26 26 26 27 27 28 29 29 30 31 33 34 35 35 36 37 37 37 37 37 37 36 35 33 31 30 29 29 30 31
20 22 23 24 25 25 25 23 22 20 20 20 20 21 23 23 23 23 23 22 23 23 23 23 24 24 25 26 27 28 29 31 32 33 34 35 36 36 36 36 36 35 35 35 33 31 30 30 30
19 20 21 22 22 22 22 20 18 18 18 19 20 21 22 22 21 20 20 19 19 19 19 19 20 20 21 22 23 25 26 28 29 30 31 32 32 33 34 34 35 36 36 35 34 33 31 32 33
17 18 18 19 18 18 18 17 17 17 19 20 21 21 22 22 20 19 17 17 17 16 16 16 17 17 18 19 19 20 21 23 25 26 28 29 30 31 31 32 34 36 36 36 35 35 33 33 33
15 16 16 16 15 14 14 15 17 18 19 20 20 20 21 21 20 18 17 16 16 16 15 15 16 16 16 15 16 16 17 18 20 22 24 26 28 29 30 31 33 35 36 36 36 37 35 35 34
13 13 13 13 13 13 13 14 16 18 18 18 18 19 19 19 19 18 18 17 17 17 17 16 16 15 14 14 14 13 13 14 14 16 18 21 24 26 28 30 31 33 35 35 35 37 37 37 36
12 13 13 13 14 14 14 15 16 16 16 17 17 17 18 18 18 18 18 18 18 17 17 17 16 16 14 13 13 12 11 10 10 11 13 15 18 21 24 26 29 31 34 35 36 37 36 37 37
12 13 13 13 14 14 15 14 15 15 16 17 17 18 18 18 18 18 19 19 18 18 18 17 17 17 15 14 13 12 10 10 8 7 8 10 12 15 19 23 25 28 31 34 36 36 36 35 35
12 12 13 13 14 14 15 15 15 15 16 17 18 18 18 19 19 19 20 20 19 18 18 17 17 17 16 15 14 12 12 10 8 7 7 7 9 11 13 16 20 23 26 30 32 33 34 33 32
11 12 13 14 14 15 15 15 15 15 16 17 18 19 19 20 21 21 20 21 21 21 20 19 18 19 18 18 17 14 13 12 10 9 7 7 7 8 10 13 16 18 22 24 27 30 32 33 33
11 12 13 14 14 15 15 15 15 15 16 17 18 18 19 21 21 21 21 21 21 22 22 21 20 19 19 19 18 16 15 14 13 11 10 9 7 7 8 9 12 15 18 20 23 26 29 30 32
Wind_Direction
54 51 39 30 15 20 26 34 38 40 45 41 31 19 18 14 329 304 307 285 280 282 283 291 311 343 32 51 47 41 38 37 35 34 34 30 21 8 356 320 271 246 239 237 237 239 238 238 241
46 30 27 13 3 14 23 34 38 30 37 35 22 11 10 3 322 301 294 276 275 277 275 272 273 276 279 280 283 297 314 331 353 6 15 19 15 8 0 342 308 274 257 247 240 239 240 243 245
33 10 11 352 355 15 25 28 36 28 28 25 16 6 1 352 328 305 291 283 281 281 279 275 273 270 269 268 267 268 271 274 276 283 296 318 341 350 350 345 330 304 277 259 248 244 245 246 250
6 351 342 335 351 8 20 21 24 23 18 11 7 3 356 349 326 307 297 289 285 284 280 277 275 272 269 267 265 265 264 264 264 265 267 272 280 294 312 323 322 316 303 280 265 259 257 256 255
334 324 320 334 345 2 12 11 10 11 2 356 352 348 342 337 326 310 300 296 290 285 280 276 274 273 270 268 266 264 263 262 261 261 263 265 267 270 277 287 296 304 305 296 283 272 265 262 258
318 326 325 337 337 348 358 358 351 351 342 340 336 331 330 325 321 312 307 302 294 287 281 275 273 272 270 268 266 262 259 259 259 259 259 261 263 263 265 269 274 281 289 290 288 284 273 267 264
300 310 314 324 320 332 337 337 335 331 326 323 320 316 316 312 306 303 301 298 294 290 283 277 271 267 265 263 262 260 258 256 256 256 257 258 259 261 263 265 267 269 271 276 279 281 279 273 268
295 300 306 308 314 321 329 325 324 320 316 313 309 308 307 301 297 295 292 290 290 288 287 283 276 270 265 261 259 257 255 255 255 255 255 256 257 258 260 262 264 265 265 264 267 270 274 275 271
293 295 297 298 306 309 313 311 313 311 309 307 305 303 299 295 292 291 286 282 281 279 280 278 276 273 270 266 261 259 255 253 253 254 254 254 255 256 258 259 261 263 263 261 259 261 266 269 268
288 292 296 300 304 304 303 303 304 303 302 300 298 295 294 292 290 286 283 279 277 276 274 274 273 274 273 272 268 265 258 255 253 251 252 253 253 253 255 256 258 259 260 259 257 256 258 261 263
288 291 294 300 301 301 301 302 302 300 297 296 295 292 289 287 285 283 282 281 279 276 273 272 271 269 269 269 269 268 266 261 258 255 254 253 253 253 253 253 255 255 256 257 257 255 253 255 255
289 290 292 296 300 302 303 301 299 297 296 295 293 291 289 287 284 281 279 278 277 276 274 272 269 268 268 267 266 265 265 266 263 258 256 253 254 255 254 252 253 253 252 253 255 254 251 250 249
287 288 294 299 300 300 300 299 297 296 296 296 295 293 291 289 287 284 281 279 277 275 274 273 271 270 267 266 265 266 265 266 264 263 260 256 254 252 253 255 253 252 250 250 251 251 250 249 246
289 292 297 298 297 298 298 298 295 296 298 298 297 295 292 290 287 284 281 279 276 275 273 272 272 271 270 267 266 264 264 264 265 263 263 262 258 256 255 257 254 251 249 248 248 247 246 247 246
292 296 298 297 295 297 299 297 301 301 300 299 297 295 292 289 287 285 282 279 277 276 274 273 272 271 271 270 268 266 264 263 262 262 263 263 262 262 260 259 258 254 251 248 246 246 245 245 246
297 297 297 295 297 304 306 305 307 306 304 302 300 297 294 290 288 286 284 282 280 279 277 276 275 273 272 271 270 268 266 264 262 260 261 260 261 262 262 261 260 257 254 251 248 247 245 244 246
295 297 301 303 308 312 312 312 312 310 308 307 304 300 297 294 291 287 285 284 282 281 280 279 277 275 274 272 271 269 268 265 262 259 258 258 259 258 259 259 257 257 256 253 250 247 245 246 245
300 305 309 311 312 313 313 314 314 314 314 310 306 303 301 299 296 292 289 286 284 282 280 279 278 277 275 273 272 270 269 266 263 260 257 256 256 255 255 255 255 256 256 254 250 247 245 245 246
306 310 311 311 310 310 312 313 316 317 316 312 309 307 306 304 302 299 295 291 288 285 283 282 280 278 276 274 272 270 268 266 263 260 256 254 253 253 253 252 252 252 254 253 250 248 246 245 246
308 308 308 308 309 311 314 316 318 320 318 316 313 312 311 310 307 305 301 297 294 291 289 288 285 282 279 277 274 271 269 267 263 259 255 253 252 250 250 250 249 248 248 248 249 247 245 245 246
308 308 309 310 311 313 317 320 323 324 324 324 324 323 322 320 316 312 310 306 304 301 297 294 291 287 284 281 278 274 271 268 264 260 256 253 251 249 248 247 245 244 244 243 245 245 244 243 242
311 313 314 314 316 317 321 325 331 335 336 337 337 336 335 334 330 325 321 318 315 311 306 302 298 295 292 288 282 278 274 270 266 261 256 253 250 247 245 244 243 241 240 240 241 242 241 240 240
317 320 321 322 323 322 326 331 341 346 348 347 346 345 345 344 343 341 337 334 331 327 322 316 311 306 303 297 293 286 279 273 268 262 257 253 249 246 244 242 241 240 239 238 237 238 238 237 237
329 331 332 332 330 331 338 343 351 354 352 352 354 353 354 354 356 355 352 350 348 345 342 336 329 321 316 309 304 299 289 279 271 264 258 253 250 246 242 241 240 239 238 236 234 235 236 235 234
344 344 344 344 347 352 356 358 359 357 356 357 359 359 360 0 1 1 1 0 358 355 351 347 342 338 331 324 320 312 304 293 280 268 260 255 251 247 243 241 240 237 235 233 232 232 234 235 234
360 2 2 3 6 8 9 10 7 6 5 5 4 5 6 6 6 7 7 6 5 4 3 0 355 351 347 342 338 330 325 316 297 280 267 260 253 247 244 242 241 238 234 231 231 231 233 233 232
15 18 17 17 18 18 20 22 20 19 18 16 14 14 12 12 12 10 8 8 8 8 8 7 6 4 3 1 359 353 343 336 324 303 281 270 261 253 249 244 241 238 234 230 230 230 231 232 231
27 27 26 25 23 25 27 30 30 31 28 26 24 23 22 21 19 16 14 14 13 12 12 12 13 15 16 13 9 4 1 354 345 331 312 287 272 260 251 242 239 235 232 229 228 228 232 234 233
36 35 34 35 32 31 34 37 35 35 32 31 31 29 28 27 24 23 24 24 24 23 23 23 22 22 23 22 20 20 17 14 10 2 347 331 296 269 256 248 244 239 235 232 230 230 231 234 235
48 46 42 39 37 38 40 41 38 37 34 34 33 31 30 28 27 27 27 27 28 27 27 27 27 26 26 25 26 28 27 23 20 12 2 348 329 300 279 267 257 246 242 237 234 235 234 234 234